Time,TemperatureF,DewpointF,PressureIn,WindDirection,WindDirectionDegrees,WindSpeedMPH,WindSpeedGustMPH,Humidity,HourlyPrecipIn,Conditions,Clouds,dailyrainin,SoftwareType,DateUTC
2013-02-23 00:14:00,26.4,26.2,29.91,West,270,7.8,-999.0,99,-99.99,,,0.00,Acu-Link.com,2013-02-23 06:14:00,
2013-02-23 00:29:00,26.2,26.0,29.91,West,270,6.8,-999.0,99,-99.99,,,0.00,Acu-Link.com,2013-02-23 06:29:00,
2013-02-23 00:44:00,26.1,25.9,29.91,West,270,1.7,-999.0,99,-99.99,,,0.00,Acu-Link.com,2013-02-23 06:44:00,
2013-02-23 01:00:00,25.9,25.7,29.92,South,180,4.7,-999.0,99,-99.99,,,0.00,Acu-Link.com,2013-02-23 07:00:00,
2013-02-23 01:15:00,25.9,25.7,29.92,South,180,2.7,-999.0,99,-99.99,,,0.00,Acu-Link.com,2013-02-23 07:15:00,
2013-02-23 01:30:00,25.5,25.3,29.91,West,270,7.3,-999.0,99,-99.99,,,0.00,Acu-Link.com,2013-02-23 07:30:00,
2013-02-23 01:45:00,25.5,25.3,29.91,WSW,247,5.8,-999.0,99,-99.99,,,0.00,Acu-Link.com,2013-02-23 07:45:00,
2013-02-23 02:00:00,25.5,25.3,29.91,West,270,7.8,-999.0,99,-99.99,,,0.00,Acu-Link.com,2013-02-23 08:00:00,
2013-02-23 02:15:00,25.7,25.5,29.90,West,270,5.8,-999.0,99,-99.99,,,0.00,Acu-Link.com,2013-02-23 08:15:00,
2013-02-23 02:30:00,25.7,25.5,29.90,West,270,6.3,-999.0,99,-99.99,,,0.00,Acu-Link.com,2013-02-23 08:30:00,
2013-02-23 02:45:00,25.7,25.5,29.90,West,270,8.9,-999.0,99,-99.99,,,0.00,Acu-Link.com,2013-02-23 08:45:00,
2013-02-23 03:00:00,25.7,25.5,29.90,South,180,6.8,-999.0,99,-99.99,,,0.00,Acu-Link.com,2013-02-23 09:00:00,
2013-02-23 03:20:00,25.5,25.3,29.91,West,270,6.8,-999.0,99,-99.99,,,0.00,Acu-Link.com,2013-02-23 09:20:00,
2013-02-23 03:35:00,25.5,25.3,29.90,WNW,292,6.3,-999.0,99,-99.99,,,0.00,Acu-Link.com,2013-02-23 09:35:00,
2013-02-23 03:50:00,25.3,25.1,29.90,West,270,5.3,-999.0,99,-99.99,,,0.00,Acu-Link.com,2013-02-23 09:50:00,
2013-02-23 04:06:00,24.8,24.6,29.91,WSW,247,5.3,-999.0,99,-99.99,,,0.00,Acu-Link.com,2013-02-23 10:06:00,
2013-02-23 04:21:00,24.3,24.1,29.91,WSW,247,4.7,-999.0,99,-99.99,,,0.00,Acu-Link.com,2013-02-23 10:21:00,
2013-02-23 04:36:00,23.5,23.3,29.91,West,270,6.8,-999.0,99,-99.99,,,0.00,Acu-Link.com,2013-02-23 10:36:00,
2013-02-23 04:51:00,23.0,22.8,29.92,West,270,6.3,-999.0,99,-99.99,,,0.00,Acu-Link.com,2013-02-23 10:51:00,
2013-02-23 05:06:00,24.6,24.4,29.92,WSW,247,9.4,-999.0,99,-99.99,,,0.00,Acu-Link.com,2013-02-23 11:06:00,
2013-02-23 05:21:00,22.6,22.4,29.92,WSW,247,5.8,-999.0,99,-99.99,,,0.00,Acu-Link.com,2013-02-23 11:21:00,
2013-02-23 05:36:00,22.5,22.3,29.92,WNW,292,6.8,-999.0,99,-99.99,,,0.00,Acu-Link.com,2013-02-23 11:36:00,
2013-02-23 05:51:00,22.5,22.3,29.92,West,270,7.8,-999.0,99,-99.99,,,0.00,Acu-Link.com,2013-02-23 11:51:00,
2013-02-23 06:06:00,22.3,22.1,29.92,West,270,6.8,-999.0,99,-99.99,,,0.00,Acu-Link.com,2013-02-23 12:06:00,
2013-02-23 06:22:00,21.7,21.5,29.92,WSW,247,2.7,-999.0,99,-99.99,,,0.00,Acu-Link.com,2013-02-23 12:22:00,
2013-02-23 06:37:00,21.7,21.5,29.92,West,270,4.2,-999.0,99,-99.99,,,0.00,Acu-Link.com,2013-02-23 12:37:00,
2013-02-23 06:52:00,22.1,21.9,29.91,WSW,247,3.7,-999.0,99,-99.99,,,0.00,Acu-Link.com,2013-02-23 12:52:00,
2013-02-23 07:07:00,22.8,22.6,29.90,West,270,10.4,-999.0,99,-99.99,,,0.00,Acu-Link.com,2013-02-23 13:07:00,
2013-02-23 07:22:00,23.4,23.2,29.90,WNW,292,6.8,-999.0,99,-99.99,,,0.00,Acu-Link.com,2013-02-23 13:22:00,
2013-02-23 07:37:00,23.7,23.5,29.89,West,270,8.9,-999.0,99,-99.99,,,0.00,Acu-Link.com,2013-02-23 13:37:00,
2013-02-23 07:52:00,24.3,24.1,29.90,WNW,292,5.8,-999.0,99,-99.99,,,0.00,Acu-Link.com,2013-02-23 13:52:00,
2013-02-23 08:07:00,24.8,24.6,29.91,WNW,292,8.3,-999.0,99,-99.99,,,0.00,Acu-Link.com,2013-02-23 14:07:00,
2013-02-23 08:22:00,25.0,24.8,29.91,WNW,292,9.9,-999.0,99,-99.99,,,0.00,Acu-Link.com,2013-02-23 14:22:00,
2013-02-23 08:38:00,25.5,25.3,29.91,WNW,292,6.8,-999.0,99,-99.99,,,0.00,Acu-Link.com,2013-02-23 14:38:00,
2013-02-23 08:53:00,25.7,25.5,29.91,NW,315,8.3,-999.0,99,-99.99,,,0.00,Acu-Link.com,2013-02-23 14:53:00,
2013-02-23 09:08:00,26.8,26.6,29.91,WNW,292,6.8,-999.0,99,-99.99,,,0.00,Acu-Link.com,2013-02-23 15:08:00,
2013-02-23 09:23:00,25.7,25.5,29.90,NW,315,6.8,-999.0,99,-99.99,,,0.00,Acu-Link.com,2013-02-23 15:23:00,
2013-02-23 09:38:00,27.0,26.8,29.90,NW,315,5.3,-999.0,99,-99.99,,,0.00,Acu-Link.com,2013-02-23 15:38:00,
2013-02-23 09:53:00,27.3,27.1,29.91,WNW,292,10.9,-999.0,99,-99.99,,,0.00,Acu-Link.com,2013-02-23 15:53:00,
2013-02-23 10:08:00,26.8,26.6,29.91,WNW,292,8.9,-999.0,99,-99.99,,,0.00,Acu-Link.com,2013-02-23 16:08:00,
2013-02-23 10:23:00,27.3,27.1,29.91,West,270,8.9,-999.0,99,-99.99,,,0.00,Acu-Link.com,2013-02-23 16:23:00,
2013-02-23 10:38:00,27.0,26.8,29.90,WNW,292,7.8,-999.0,99,-99.99,,,0.00,Acu-Link.com,2013-02-23 16:38:00,
2013-02-23 10:54:00,26.8,26.6,29.89,WNW,292,6.3,-999.0,99,-99.99,,,0.00,Acu-Link.com,2013-02-23 16:54:00,
2013-02-23 11:09:00,26.8,26.6,29.90,NW,315,4.7,-999.0,99,-99.99,,,0.00,Acu-Link.com,2013-02-23 17:09:00,
2013-02-23 11:24:00,30.2,30.0,29.91,WNW,292,4.7,-999.0,99,-99.99,,,0.00,Acu-Link.com,2013-02-23 17:24:00,
2013-02-23 11:39:00,30.0,29.8,29.91,SSW,202,4.7,-999.0,99,-99.99,,,0.00,Acu-Link.com,2013-02-23 17:39:00,
2013-02-23 11:54:00,30.0,29.8,29.90,WSW,247,6.3,-999.0,99,-99.99,,,0.00,Acu-Link.com,2013-02-23 17:54:00,
2013-02-23 12:09:00,30.6,30.4,29.88,SW,225,6.3,-999.0,99,-99.99,,,0.00,Acu-Link.com,2013-02-23 18:09:00,
2013-02-23 12:25:00,29.1,28.9,29.87,West,270,2.2,-999.0,99,-99.99,,,0.00,Acu-Link.com,2013-02-23 18:25:00,
2013-02-23 12:40:00,29.8,29.6,29.88,SW,225,2.2,-999.0,99,-99.99,,,0.00,Acu-Link.com,2013-02-23 18:40:00,
2013-02-23 12:55:00,30.2,30.0,29.88,SW,225,5.3,-999.0,99,-99.99,,,0.00,Acu-Link.com,2013-02-23 18:55:00,
2013-02-23 13:10:00,29.8,29.6,29.88,SW,225,6.3,-999.0,99,-99.99,,,0.00,Acu-Link.com,2013-02-23 19:10:00,
2013-02-23 13:25:00,30.9,30.7,29.88,SW,225,5.3,-999.0,99,-99.99,,,0.00,Acu-Link.com,2013-02-23 19:25:00,
2013-02-23 13:40:00,29.7,29.5,29.87,SW,225,3.7,-999.0,99,-99.99,,,0.00,Acu-Link.com,2013-02-23 19:40:00,
2013-02-23 13:55:00,30.6,30.4,29.88,ENE,67,5.8,-999.0,99,-99.99,,,0.00,Acu-Link.com,2013-02-23 19:55:00,
2013-02-23 14:13:00,29.8,29.6,29.87,West,270,5.8,-999.0,99,-99.99,,,0.00,Acu-Link.com,2013-02-23 20:13:00,
2013-02-23 14:28:00,29.8,29.6,29.87,WNW,292,10.9,-999.0,99,-99.99,,,0.00,Acu-Link.com,2013-02-23 20:28:00,
2013-02-23 14:43:00,30.2,30.0,29.87,West,270,5.8,-999.0,99,-99.99,,,0.00,Acu-Link.com,2013-02-23 20:43:00,
2013-02-23 14:58:00,30.0,29.8,29.87,West,270,4.7,-999.0,99,-99.99,,,0.00,Acu-Link.com,2013-02-23 20:58:00,
2013-02-23 15:13:00,29.5,29.3,29.86,WNW,292,7.3,-999.0,99,-99.99,,,0.00,Acu-Link.com,2013-02-23 21:13:00,
2013-02-23 15:28:00,29.8,29.6,29.87,West,270,7.3,-999.0,99,-99.99,,,0.00,Acu-Link.com,2013-02-23 21:28:00,
2013-02-23 15:43:00,31.3,31.1,29.87,West,270,2.7,-999.0,99,-99.99,,,0.00,Acu-Link.com,2013-02-23 21:43:00,
2013-02-23 15:59:00,30.4,30.2,29.87,West,270,3.2,-999.0,99,-99.99,,,0.00,Acu-Link.com,2013-02-23 21:59:00,
2013-02-23 16:14:00,29.7,29.5,29.87,SSW,202,2.7,-999.0,99,-99.99,,,0.00,Acu-Link.com,2013-02-23 22:14:00,
2013-02-23 16:29:00,29.3,29.1,29.87,West,270,5.8,-999.0,99,-99.99,,,0.00,Acu-Link.com,2013-02-23 22:29:00,
2013-02-23 16:44:00,28.8,28.6,29.88,West,270,3.7,-999.0,99,-99.99,,,0.00,Acu-Link.com,2013-02-23 22:44:00,
2013-02-23 16:59:00,28.0,27.8,29.88,West,270,4.2,-999.0,99,-99.99,,,0.00,Acu-Link.com,2013-02-23 22:59:00,
2013-02-23 17:14:00,27.5,27.3,29.88,West,270,5.8,-999.0,99,-99.99,,,0.00,Acu-Link.com,2013-02-23 23:14:00,
2013-02-23 17:29:00,27.1,26.9,29.89,West,270,6.3,-999.0,99,-99.99,,,0.00,Acu-Link.com,2013-02-23 23:29:00,
2013-02-23 17:44:00,27.0,26.8,29.89,WNW,292,8.9,-999.0,99,-99.99,,,0.00,Acu-Link.com,2013-02-23 23:44:00,
2013-02-23 17:59:00,27.0,26.8,29.89,WNW,292,6.8,-999.0,99,-99.99,,,0.00,Acu-Link.com,2013-02-23 23:59:00,
2013-02-23 18:15:00,26.8,26.6,29.89,NW,315,4.7,-999.0,99,-99.99,,,0.00,Acu-Link.com,2013-02-24 00:15:00,
2013-02-23 18:30:00,26.2,26.0,29.89,WNW,292,4.2,-999.0,99,-99.99,,,0.00,Acu-Link.com,2013-02-24 00:30:00,
2013-02-23 18:45:00,25.7,25.5,29.90,WNW,292,4.2,-999.0,99,-99.99,,,0.00,Acu-Link.com,2013-02-24 00:45:00,
2013-02-23 19:00:00,25.0,24.8,29.90,WNW,292,3.7,-999.0,99,-99.99,,,0.00,Acu-Link.com,2013-02-24 01:00:00,
2013-02-23 19:15:00,24.6,24.4,29.90,WNW,292,2.2,-999.0,99,-99.99,,,0.00,Acu-Link.com,2013-02-24 01:15:00,
2013-02-23 19:30:00,23.7,23.5,29.90,West,270,0.0,-999.0,99,-99.99,,,0.00,Acu-Link.com,2013-02-24 01:30:00,
2013-02-23 19:46:00,23.2,23.0,29.91,WNW,292,2.7,-999.0,99,-99.99,,,0.00,Acu-Link.com,2013-02-24 01:46:00,
2013-02-23 20:01:00,22.6,22.4,29.90,West,270,0.0,-999.0,99,-99.99,,,0.00,Acu-Link.com,2013-02-24 02:01:00,
2013-02-23 20:16:00,22.3,22.1,29.90,WNW,292,0.0,-999.0,99,-99.99,,,0.00,Acu-Link.com,2013-02-24 02:16:00,
2013-02-23 20:31:00,21.2,21.0,29.89,West,270,0.0,-999.0,99,-99.99,,,0.00,Acu-Link.com,2013-02-24 02:31:00,
2013-02-23 20:46:00,20.7,20.5,29.90,SSW,202,0.0,-999.0,99,-99.99,,,0.00,Acu-Link.com,2013-02-24 02:46:00,
2013-02-23 21:01:00,19.8,19.6,29.90,SSW,202,0.0,-999.0,99,-99.99,,,0.00,Acu-Link.com,2013-02-24 03:01:00,
2013-02-23 21:17:00,19.4,19.2,29.91,SSW,202,0.0,-999.0,99,-99.99,,,0.00,Acu-Link.com,2013-02-24 03:17:00,
2013-02-23 21:32:00,19.0,18.8,29.91,SSW,202,0.0,-999.0,99,-99.99,,,0.00,Acu-Link.com,2013-02-24 03:32:00,
2013-02-23 21:47:00,18.9,18.7,29.91,SSW,202,0.0,-999.0,99,-99.99,,,0.00,Acu-Link.com,2013-02-24 03:47:00,
2013-02-23 22:02:00,19.2,19.0,29.91,South,180,0.0,-999.0,99,-99.99,,,0.00,Acu-Link.com,2013-02-24 04:02:00,
2013-02-23 22:17:00,18.3,18.1,29.92,South,180,0.0,-999.0,99,-99.99,,,0.00,Acu-Link.com,2013-02-24 04:17:00,
2013-02-23 22:32:00,18.0,17.8,29.92,SW,225,0.0,-999.0,99,-99.99,,,0.00,Acu-Link.com,2013-02-24 04:32:00,
2013-02-23 22:47:00,16.7,16.5,29.92,SW,225,0.0,-999.0,99,-99.99,,,0.00,Acu-Link.com,2013-02-24 04:47:00,
2013-02-23 23:02:00,16.9,16.7,29.92,SW,225,0.0,-999.0,99,-99.99,,,0.00,Acu-Link.com,2013-02-24 05:02:00,
2013-02-23 23:18:00,17.6,17.4,29.92,SW,225,0.0,-999.0,99,-99.99,,,0.00,Acu-Link.com,2013-02-24 05:18:00,
2013-02-23 23:33:00,17.8,17.6,29.92,SW,225,0.0,-999.0,99,-99.99,,,0.00,Acu-Link.com,2013-02-24 05:33:00,
2013-02-23 23:48:00,17.6,17.4,29.93,SW,225,0.0,-999.0,99,-99.99,,,0.00,Acu-Link.com,2013-02-24 05:48:00,